Station Historical Data
Daily Summary for May 25, 2012 Units:  Metric    English   Both
« Previous Day
Next Day »
Daily Weekly Monthly Yearly Custom
  High: Low: Average:
Temperature: 31 °C 19.9 °C 25.4 °C
Dew Point: 22.3 °C 16 °C 19.1 °C
Humidity: 91% 41% 70%
Wind Speed: 19.3km/h 0km/h 5.8km/h
Wind Gust: 22.5km/h - -
Wind- - South
Pressure: 1016.8 hPa 1010.7 hPa -
Precipitation: 0 mm    
Historical Graphs
 
 
Tabular Data for May 25, 2012
Time Temperature Dew Point Pressure Wind Wind Speed Wind Gust Humidity Rainfall Rate (Hourly) Conditions
00:00 23.2 °C 19.4 °C 1010.7 hPa SE 8 km/h 8 km/h 79% 0 mm
00:01 23.2 °C 19.4 °C 1010.7 hPa SE 3.2 km/h 8 km/h 79% 0 mm
00:06 23.2 °C 19.3 °C 1010.7 hPa SSE 4.8 km/h 8 km/h 79% 0 mm
00:11 23.1 °C 19.2 °C 1011.1 hPa SE 4.8 km/h 6.4 km/h 79% 0 mm
00:13 23.1 °C 19.2 °C 1010.7 hPa SE 3.2 km/h 6.4 km/h 79% 0 mm
00:18 23 °C 19.4 °C 1010.7 hPa SE 4.8 km/h 9.7 km/h 80% 0 mm
00:23 23 °C 19.4 °C 1011.1 hPa SE 4.8 km/h 8 km/h 80% 0 mm
00:28 22.9 °C 19.3 °C 1011.1 hPa SSE 4.8 km/h 9.7 km/h 80% 0 mm
00:33 23 °C 19.4 °C 1011.1 hPa SE 3.2 km/h 11.3 km/h 80% 0 mm
00:38 22.9 °C 19.3 °C 1011.1 hPa ESE 6.4 km/h 9.7 km/h 80% 0 mm
00:43 22.9 °C 19.3 °C 1011.1 hPa SE 4.8 km/h 8 km/h 80% 0 mm
00:48 22.8 °C 19.2 °C 1011.4 hPa SE 9.7 km/h 9.7 km/h 80% 0 mm
00:53 22.8 °C 19.2 °C 1011.4 hPa SE 6.4 km/h 8 km/h 80% 0 mm
00:58 22.8 °C 19.2 °C 1011.4 hPa SE 4.8 km/h 11.3 km/h 80% 0 mm
01:03 22.8 °C 19.2 °C 1011.4 hPa SE 4.8 km/h 8 km/h 80% 0 mm
01:08 22.7 °C 19.3 °C 1011.4 hPa SE 8 km/h 8 km/h 81% 0 mm
01:13 22.7 °C 19.3 °C 1011.7 hPa SE 6.4 km/h 9.7 km/h 81% 0 mm
01:18 22.6 °C 19.2 °C 1011.7 hPa SSE 4.8 km/h 8 km/h 81% 0 mm
01:23 22.5 °C 19.1 °C 1011.7 hPa SSE 4.8 km/h 6.4 km/h 81% 0 mm
01:28 22.5 °C 19.1 °C 1011.7 hPa SE 8 km/h 8 km/h 81% 0 mm
01:33 22.4 °C 19.2 °C 1011.7 hPa SE 8 km/h 8 km/h 82% 0 mm
01:38 22.4 °C 19 °C 1011.7 hPa SE 6.4 km/h 9.7 km/h 81% 0 mm
01:43 22.5 °C 19.1 °C 1012.1 hPa SE 8 km/h 8 km/h 81% 0 mm
01:48 22.4 °C 19 °C 1012.1 hPa SE 4.8 km/h 6.4 km/h 81% 0 mm
01:53 22.4 °C 19 °C 1012.1 hPa SE 6.4 km/h 6.4 km/h 81% 0 mm
01:58 22.4 °C 19 °C 1012.1 hPa ESE 8 km/h 8 km/h 81% 0 mm
02:03 22.4 °C 19 °C 1012.1 hPa SE 3.2 km/h 9.7 km/h 81% 0 mm
02:08 22.4 °C 19 °C 1012.1 hPa SE 4.8 km/h 8 km/h 81% 0 mm
02:13 22.3 °C 19.1 °C 1012.1 hPa SE 4.8 km/h 6.4 km/h 82% 0 mm
02:18 22.3 °C 19.1 °C 1012.1 hPa SE 6.4 km/h 6.4 km/h 82% 0 mm
02:19 22.3 °C 19.1 °C 1012.1 hPa SE 4.8 km/h 6.4 km/h 82% 0 mm
02:24 22.2 °C 19 °C 1012.1 hPa SE 6.4 km/h 8 km/h 82% 0 mm
02:29 22.2 °C 18.9 °C 1012.4 hPa SE 4.8 km/h 8 km/h 82% 0 mm
02:34 22.2 °C 19 °C 1012.4 hPa SE 4.8 km/h 8 km/h 82% 0 mm
02:39 22.2 °C 19 °C 1012.4 hPa SE 6.4 km/h 8 km/h 82% 0 mm
02:44 22.2 °C 19 °C 1012.4 hPa SSE 6.4 km/h 8 km/h 82% 0 mm
02:49 22.2 °C 18.9 °C 1012.4 hPa ESE 8 km/h 9.7 km/h 82% 0 mm
02:54 22.1 °C 19.1 °C 1012.4 hPa SE 8 km/h 8 km/h 83% 0 mm
02:59 22 °C 19 °C 1012.8 hPa SE 4.8 km/h 8 km/h 83% 0 mm
03:04 22 °C 19 °C 1012.8 hPa SE 4.8 km/h 6.4 km/h 83% 0 mm
03:09 21.9 °C 18.9 °C 1012.8 hPa SE 6.4 km/h 8 km/h 83% 0 mm
03:14 22 °C 19 °C 1012.8 hPa SE 4.8 km/h 11.3 km/h 83% 0 mm
03:19 21.9 °C 18.9 °C 1012.8 hPa SE 6.4 km/h 8 km/h 83% 0 mm
03:24 21.9 °C 18.9 °C 1012.8 hPa SE 6.4 km/h 9.7 km/h 83% 0 mm
03:29 21.9 °C 18.9 °C 1012.8 hPa SE 6.4 km/h 8 km/h 83% 0 mm
03:34 21.9 °C 18.9 °C 1012.8 hPa SE 4.8 km/h 9.7 km/h 83% 0 mm
03:39 21.9 °C 19.1 °C 1012.8 hPa SE 6.4 km/h 9.7 km/h 84% 0 mm
03:44 21.9 °C 19.1 °C 1012.8 hPa SE 8 km/h 8 km/h 84% 0 mm
03:49 21.9 °C 19.1 °C 1012.8 hPa SE 4.8 km/h 8 km/h 84% 0 mm
03:55 21.8 °C 18.9 °C 1012.8 hPa SE 4.8 km/h 8 km/h 84% 0 mm
04:00 21.8 °C 18.9 °C 1012.8 hPa ESE 3.2 km/h 8 km/h 84% 0 mm
04:05 21.7 °C 18.9 °C 1013.1 hPa SE 4.8 km/h 6.4 km/h 84% 0 mm
04:10 21.7 °C 18.8 °C 1012.8 hPa SE 8 km/h 8 km/h 84% 0 mm
04:15 21.7 °C 18.9 °C 1013.1 hPa SE 8 km/h 12.9 km/h 84% 0 mm
04:20 21.7 °C 18.9 °C 1013.1 hPa SE 6.4 km/h 8 km/h 84% 0 mm
04:25 21.7 °C 19.1 °C 1013.1 hPa SE 8 km/h 9.7 km/h 85% 0 mm
04:30 21.6 °C 19 °C 1013.1 hPa SE 3.2 km/h 6.4 km/h 85% 0 mm
04:35 21.5 °C 18.9 °C 1013.1 hPa SE 4.8 km/h 8 km/h 85% 0 mm
04:40 21.4 °C 18.8 °C 1013.1 hPa SSE 6.4 km/h 8 km/h 85% 0 mm
04:45 21.4 °C 18.8 °C 1013.1 hPa SSE 3.2 km/h 6.4 km/h 85% 0 mm
04:50 21.2 °C 18.8 °C 1013.1 hPa SE 3.2 km/h 3.2 km/h 86% 0 mm
04:55 21.1 °C 18.7 °C 1013.4 hPa SE 3.2 km/h 4.8 km/h 86% 0 mm
05:00 21.1 °C 18.8 °C 1013.4 hPa SE 1.6 km/h 4.8 km/h 87% 0 mm
05:05 21.1 °C 18.8 °C 1013.8 hPa SSE 3.2 km/h 4.8 km/h 87% 0 mm
05:10 21 °C 18.8 °C 1013.8 hPa SE 3.2 km/h 3.2 km/h 87% 0 mm
05:15 21 °C 18.8 °C 1013.8 hPa SE 4.8 km/h 6.4 km/h 87% 0 mm
05:20 21.1 °C 18.8 °C 1013.8 hPa SSE 6.4 km/h 6.4 km/h 87% 0 mm
05:25 21.1 °C 18.8 °C 1013.8 hPa SE 6.4 km/h 6.4 km/h 87% 0 mm
05:30 21.1 °C 18.9 °C 1013.8 hPa ESE 6.4 km/h 8 km/h 87% 0 mm
05:35 21.1 °C 18.8 °C 1014.1 hPa SE 3.2 km/h 4.8 km/h 87% 0 mm
05:40 20.9 °C 18.7 °C 1014.1 hPa SE 4.8 km/h 4.8 km/h 87% 0 mm
05:45 20.9 °C 18.7 °C 1014.1 hPa SSE 3.2 km/h 6.4 km/h 87% 0 mm
05:50 20.9 °C 18.7 °C 1014.1 hPa SE 4.8 km/h 6.4 km/h 87% 0 mm
05:55 20.8 °C 18.8 °C 1014.1 hPa SE 3.2 km/h 4.8 km/h 88% 0 mm
06:00 20.8 °C 18.7 °C 1014.1 hPa SE 3.2 km/h 6.4 km/h 88% 0 mm
06:05 20.7 °C 18.7 °C 1014.1 hPa SE 3.2 km/h 3.2 km/h 88% 0 mm
06:10 20.6 °C 18.6 °C 1014.1 hPa SE 1.6 km/h 3.2 km/h 88% 0 mm
06:15 20.5 °C 18.4 °C 1014.1 hPa ESE 3.2 km/h 3.2 km/h 88% 0 mm
06:20 20.4 °C 18.5 °C 1014.1 hPa ESE 1.6 km/h 1.6 km/h 89% 0 mm
06:25 20.3 °C 18.4 °C 1014.4 hPa SE 1.6 km/h 1.6 km/h 89% 0 mm
06:31 20.2 °C 18.6 °C 1014.4 hPa ESE 3.2 km/h 3.2 km/h 90% 0 mm
06:36 20.2 °C 18.3 °C 1014.4 hPa Calm   3.2 km/h 89% 0 mm
06:41 20.1 °C 18.2 °C 1014.8 hPa Calm     89% 0 mm
06:46 19.9 °C 18.3 °C 1014.8 hPa Calm   1.6 km/h 90% 0 mm
06:50 19.9 °C 18.2 °C 1014.8 hPa SE 1.6 km/h 3.2 km/h 90% 0 mm
06:56 19.9 °C 18.4 °C 1014.8 hPa SSE 3.2 km/h 3.2 km/h 91% 0 mm
07:01 19.9 °C 18.4 °C 1014.8 hPa SE 3.2 km/h 3.2 km/h 91% 0 mm
07:06 20 °C 18.5 °C 1014.8 hPa SSE 1.6 km/h 4.8 km/h 91% 0 mm
07:11 20 °C 18.3 °C 1015.1 hPa SSE 1.6 km/h 3.2 km/h 90% 0 mm
07:16 20.1 °C 18.6 °C 1015.1 hPa SE 1.6 km/h 3.2 km/h 91% 0 mm
07:21 20.1 °C 18.4 °C 1015.1 hPa SSE 1.6 km/h 3.2 km/h 90% 0 mm
07:26 20.2 °C 18.6 °C 1015.1 hPa SSE 3.2 km/h 3.2 km/h 90% 0 mm
07:31 20.3 °C 18.7 °C 1015.1 hPa SSE 3.2 km/h 4.8 km/h 90% 0 mm
07:36 20.6 °C 18.8 °C 1015.5 hPa SE 4.8 km/h 6.4 km/h 90% 0 mm
07:41 20.8 °C 19.1 °C 1015.5 hPa SE 6.4 km/h 8 km/h 90% 0 mm
07:46 21 °C 19.1 °C 1015.5 hPa SSE 6.4 km/h 6.4 km/h 89% 0 mm
07:51 21.2 °C 19.3 °C 1015.5 hPa SE 4.8 km/h 8 km/h 89% 0 mm
07:56 21.3 °C 19.2 °C 1015.5 hPa SSE 6.4 km/h 6.4 km/h 88% 0 mm
08:01 21.3 °C 19.3 °C 1015.8 hPa SSE 6.4 km/h 9.7 km/h 88% 0 mm
08:06 21.5 °C 19.4 °C 1015.5 hPa SE 6.4 km/h 8 km/h 88% 0 mm
08:11 21.6 °C 19.5 °C 1015.8 hPa SE 9.7 km/h 11.3 km/h 88% 0 mm
08:16 21.8 °C 19.5 °C 1015.8 hPa ESE 4.8 km/h 6.4 km/h 87% 0 mm
08:21 21.9 °C 19.6 °C 1015.8 hPa SSE 4.8 km/h 8 km/h 87% 0 mm
08:26 22.1 °C 19.8 °C 1015.8 hPa SSE 9.7 km/h 9.7 km/h 87% 0 mm
08:31 22.3 °C 20 °C 1015.8 hPa SE 4.8 km/h 9.7 km/h 87% 0 mm
08:36 22.5 °C 20.1 °C 1015.8 hPa South 6.4 km/h 8 km/h 86% 0 mm
08:41 22.7 °C 20.2 °C 1015.8 hPa SSE 6.4 km/h 8 km/h 86% 0 mm
08:46 22.8 °C 20.4 °C 1015.8 hPa SSE 4.8 km/h 8 km/h 86% 0 mm
08:51 23.1 °C 20.4 °C 1016.1 hPa SE 4.8 km/h 4.8 km/h 85% 0 mm
08:52 23.1 °C 20.4 °C 1016.1 hPa SSW 3.2 km/h 4.8 km/h 85% 0 mm
08:57 23.2 °C 20.3 °C 1016.1 hPa SW 3.2 km/h 8 km/h 84% 0 mm
09:02 23.3 °C 20.5 °C 1016.1 hPa SW 3.2 km/h 4.8 km/h 84% 0 mm
09:07 23.6 °C 20.5 °C 1016.1 hPa SW 3.2 km/h 9.7 km/h 83% 0 mm
09:12 23.8 °C 20.9 °C 1016.1 hPa SW 4.8 km/h 6.4 km/h 84% 0 mm
09:17 23.8 °C 20.6 °C 1016.1 hPa SSW 3.2 km/h 6.4 km/h 82% 0 mm
09:22 24 °C 20.7 °C 1016.1 hPa South 1.6 km/h 6.4 km/h 82% 0 mm
09:27 24.2 °C 20.9 °C 1016.1 hPa SSW 1.6 km/h 9.7 km/h 82% 0 mm
09:32 24.3 °C 20.6 °C 1016.1 hPa SW 9.7 km/h 14.5 km/h 80% 0 mm
09:37 24.3 °C 20.8 °C 1016.1 hPa WSW 9.7 km/h 9.7 km/h 81% 0 mm
09:42 24.4 °C 20.9 °C 1016.1 hPa SW 8 km/h 11.3 km/h 81% 0 mm
09:48 24.4 °C 20.8 °C 1016.5 hPa SW 6.4 km/h 11.3 km/h 80% 0 mm
09:53 24.4 °C 20.8 °C 1016.5 hPa SSW 6.4 km/h 12.9 km/h 80% 0 mm
09:58 24.5 °C 20.8 °C 1016.5 hPa WSW 9.7 km/h 12.9 km/h 80% 0 mm
10:03 24.5 °C 21 °C 1016.5 hPa SW 12.9 km/h 12.9 km/h 81% 0 mm
10:08 24.7 °C 21 °C 1016.5 hPa WSW 3.2 km/h 11.3 km/h 80% 0 mm
10:13 24.8 °C 20.9 °C 1016.1 hPa South 3.2 km/h 11.3 km/h 79% 0 mm
10:18 25.1 °C 21.2 °C 1016.5 hPa SW 9.7 km/h 9.7 km/h 79% 0 mm
10:23 25.2 °C 21.3 °C 1016.1 hPa South 4.8 km/h 8 km/h 79% 0 mm
10:28 25.3 °C 21.6 °C 1016.1 hPa West 6.4 km/h 8 km/h 80% 0 mm
10:33 25.5 °C 21.4 °C 1016.1 hPa WSW 6.4 km/h 11.3 km/h 78% 0 mm
10:38 25.6 °C 21.5 °C 1016.1 hPa SE 8 km/h 9.7 km/h 78% 0 mm
10:43 25.9 °C 21.3 °C 1016.1 hPa SW 4.8 km/h 4.8 km/h 76% 0 mm
10:48 25.8 °C 21 °C 1016.5 hPa WSW 8 km/h 16.1 km/h 75% 0 mm
10:53 25.8 °C 21 °C 1016.5 hPa WSW 4.8 km/h 9.7 km/h 75% 0 mm
10:58 26 °C 21.4 °C 1016.5 hPa WSW 4.8 km/h 8 km/h 76% 0 mm
11:03 26 °C 21.4 °C 1016.1 hPa WSW 1.6 km/h 8 km/h 76% 0 mm
11:08 26.1 °C 21.1 °C 1016.5 hPa SW 3.2 km/h 9.7 km/h 74% 0 mm
11:13 26.2 °C 21.6 °C 1016.5 hPa WSW 9.7 km/h 11.3 km/h 76% 0 mm
11:18 26.1 °C 21.1 °C 1016.5 hPa WSW 8 km/h 9.7 km/h 74% 0 mm
11:23 26.2 °C 21.4 °C 1016.5 hPa West 4.8 km/h 6.4 km/h 75% 0 mm
11:28 26.4 °C 21.4 °C 1016.5 hPa South 8 km/h 11.3 km/h 74% 0 mm
11:33 26.8 °C 21.3 °C 1016.5 hPa SSW 6.4 km/h 9.7 km/h 72% 0 mm
11:38 26.8 °C 21.2 °C 1016.5 hPa WSW 6.4 km/h 8 km/h 71% 0 mm
11:43 26.9 °C 21.4 °C 1016.1 hPa WSW 6.4 km/h 9.7 km/h 72% 0 mm
11:48 27.1 °C 22.2 °C 1016.5 hPa SSE 8 km/h 17.7 km/h 75% 0 mm
11:53 27.3 °C 22.3 °C 1016.1 hPa SW 3.2 km/h 9.7 km/h 74% 0 mm
11:58 27.6 °C 21.4 °C 1016.1 hPa SE 9.7 km/h 9.7 km/h 69% 0 mm
12:03 27.8 °C 21.1 °C 1016.1 hPa SW 12.9 km/h 14.5 km/h 67% 0 mm
12:08 27.7 °C 21.5 °C 1016.1 hPa South 8 km/h 12.9 km/h 69% 0 mm
12:13 27.9 °C 20.4 °C 1016.1 hPa SSE 14.5 km/h 19.3 km/h 64% 0 mm
12:18 27.9 °C 21.2 °C 1016.1 hPa SSE 8 km/h 12.9 km/h 67% 0 mm
12:23 28.1 °C 21.1 °C 1016.1 hPa SE 6.4 km/h 17.7 km/h 66% 0 mm
12:28 28.3 °C 21.6 °C 1016.1 hPa SE 11.3 km/h 11.3 km/h 67% 0 mm
12:34 28.2 °C 20.8 °C 1016.1 hPa SSE 8 km/h 19.3 km/h 64% 0 mm
12:39 28.4 °C 21.2 °C 1016.1 hPa SW 6.4 km/h 9.7 km/h 65% 0 mm
12:44 28.6 °C 20.6 °C 1016.1 hPa SSE 3.2 km/h 17.7 km/h 62% 0 mm
12:49 28.5 °C 21.1 °C 1016.1 hPa SSE 12.9 km/h 17.7 km/h 64% 0 mm
12:54 28.5 °C 19.7 °C 1016.5 hPa SSE 17.7 km/h 20.9 km/h 59% 0 mm
12:59 28.4 °C 20.7 °C 1016.5 hPa South 14.5 km/h 16.1 km/h 63% 0 mm
13:04 28.4 °C 19.9 °C 1016.5 hPa SSE 11.3 km/h 16.1 km/h 60% 0 mm
13:09 28.5 °C 20.5 °C 1016.5 hPa SSW 11.3 km/h 22.5 km/h 62% 0 mm
13:14 28.5 °C 19.7 °C 1016.5 hPa SSE 12.9 km/h 20.9 km/h 59% 0 mm
13:19 28.6 °C 20.6 °C 1016.5 hPa South 8 km/h 14.5 km/h 62% 0 mm
13:24 28.7 °C 20.2 °C 1016.1 hPa SSE 16.1 km/h 19.3 km/h 60% 0 mm
13:29 28.8 °C 20.2 °C 1016.1 hPa South 9.7 km/h 12.9 km/h 60% 0 mm
13:34 28.8 °C 19.2 °C 1016.1 hPa SE 16.1 km/h 22.5 km/h 56% 0 mm
13:39 28.9 °C 20.1 °C 1016.5 hPa SSW 9.7 km/h 17.7 km/h 59% 0 mm
13:44 28.9 °C 19.8 °C 1016.5 hPa SE 16.1 km/h 19.3 km/h 58% 0 mm
13:49 28.8 °C 20.1 °C 1016.5 hPa SSW 12.9 km/h 19.3 km/h 59% 0 mm
13:54 29.1 °C 21.3 °C 1016.1 hPa SSE 6.4 km/h 12.9 km/h 63% 0 mm
13:59 29.3 °C 19.9 °C 1016.5 hPa SSW 9.7 km/h 14.5 km/h 57% 0 mm
14:04 29.6 °C 21 °C 1016.1 hPa SSW 14.5 km/h 14.5 km/h 60% 0 mm
14:09 29.5 °C 20.1 °C 1016.1 hPa SSE 4.8 km/h 16.1 km/h 57% 0 mm
14:14 29.6 °C 19.6 °C 1016.1 hPa SSE 8 km/h 14.5 km/h 55% 0 mm
14:19 29.8 °C 20.6 °C 1016.1 hPa SW 6.4 km/h 9.7 km/h 58% 0 mm
14:24 29.7 °C 20.6 °C 1016.5 hPa SE 12.9 km/h 22.5 km/h 58% 0 mm
14:29 29.8 °C 19.5 °C 1016.5 hPa WSW 12.9 km/h 16.1 km/h 54% 0 mm
14:34 29.8 °C 19.2 °C 1016.5 hPa SW 8 km/h 19.3 km/h 53% 0 mm
14:39 29.9 °C 18.7 °C 1016.5 hPa WSW 8 km/h 17.7 km/h 51% 0 mm
14:45 29.8 °C 19.2 °C 1016.5 hPa SW 19.3 km/h 19.3 km/h 53% 0 mm
14:50 29.7 °C 19.1 °C 1016.5 hPa SW 17.7 km/h 19.3 km/h 53% 0 mm
14:55 29.7 °C 19.7 °C 1016.5 hPa SSW 4.8 km/h 12.9 km/h 55% 0 mm
15:00 29.9 °C 19.6 °C 1016.5 hPa WSW 9.7 km/h 12.9 km/h 54% 0 mm
15:05 30.1 °C 19.4 °C 1016.5 hPa SW 4.8 km/h 19.3 km/h 53% 0 mm
15:10 30.2 °C 20.7 °C 1016.5 hPa SSW 8 km/h 9.7 km/h 57% 0 mm
15:15 30.2 °C 19.6 °C 1016.1 hPa SW 6.4 km/h 14.5 km/h 53% 0 mm
15:20 30.3 °C 18.4 °C 1016.1 hPa West 4.8 km/h 17.7 km/h 49% 0 mm
15:25 30.3 °C 19.4 °C 1016.1 hPa SSW 11.3 km/h 11.3 km/h 52% 0 mm
15:30 30.3 °C 18.7 °C 1016.1 hPa SW 8 km/h 14.5 km/h 50% 0 mm
15:35 30.3 °C 19 °C 1016.1 hPa SSW 11.3 km/h 16.1 km/h 51% 0 mm
15:41 30.4 °C 19.5 °C 1016.1 hPa SSW 9.7 km/h 11.3 km/h 52% 0 mm
15:46 30.3 °C 17.4 °C 1016.1 hPa SW 8 km/h 19.3 km/h 46% 0 mm
15:51 30.4 °C 18.8 °C 1016.1 hPa SSE 8 km/h 12.9 km/h 50% 0 mm
15:56 30.6 °C 18.7 °C 1016.1 hPa SSW 6.4 km/h 14.5 km/h 49% 0 mm
16:01 30.7 °C 19.7 °C 1016.1 hPa SSW 11.3 km/h 11.3 km/h 52% 0 mm
16:06 30.5 °C 18.6 °C 1016.1 hPa WSW 6.4 km/h 12.9 km/h 49% 0 mm
16:11 30.5 °C 19.2 °C 1015.8 hPa SSW 6.4 km/h 11.3 km/h 51% 0 mm
16:16 30.6 °C 19.3 °C 1016.1 hPa SW 8 km/h 14.5 km/h 51% 0 mm
16:22 30.4 °C 18.6 °C 1015.8 hPa SSW 8 km/h 17.7 km/h 49% 0 mm
16:27 30.4 °C 18.2 °C 1015.8 hPa South 11.3 km/h 17.7 km/h 48% 0 mm
16:32 30.4 °C 18.2 °C 1015.8 hPa SSW 9.7 km/h 16.1 km/h 48% 0 mm
16:37 30.6 °C 19.3 °C 1015.8 hPa WSW 6.4 km/h 8 km/h 51% 0 mm
16:42 30.6 °C 17.3 °C 1015.8 hPa WSW 4.8 km/h 14.5 km/h 45% 0 mm
16:47 30.7 °C 19.1 °C 1015.8 hPa SW 16.1 km/h 16.1 km/h 50% 0 mm
16:52 30.6 °C 18 °C 1015.8 hPa SSW 11.3 km/h 17.7 km/h 47% 0 mm
16:57 30.7 °C 18.1 °C 1015.8 hPa SE 8 km/h 11.3 km/h 47% 0 mm
17:02 30.8 °C 17.8 °C 1015.8 hPa SSE 11.3 km/h 17.7 km/h 46% 0 mm
17:07 30.8 °C 17.9 °C 1015.8 hPa SSW 9.7 km/h 11.3 km/h 46% 0 mm
17:12 30.8 °C 17.5 °C 1015.8 hPa SSW 8 km/h 14.5 km/h 45% 0 mm
17:17 30.9 °C 17.2 °C 1015.8 hPa SSW 8 km/h 16.1 km/h 44% 0 mm
17:22 30.8 °C 17.1 °C 1015.5 hPa SSW 6.4 km/h 14.5 km/h 44% 0 mm
17:27 30.8 °C 17.9 °C 1015.5 hPa South 14.5 km/h 14.5 km/h 46% 0 mm
17:32 31 °C 16.6 °C 1015.5 hPa SSW 14.5 km/h 17.7 km/h 42% 0 mm
17:37 30.8 °C 16.4 °C 1015.5 hPa SW 8 km/h 16.1 km/h 42% 0 mm
17:42 30.7 °C 17.1 °C 1015.5 hPa WSW 9.7 km/h 14.5 km/h 44% 0 mm
17:47 30.8 °C 17.5 °C 1015.5 hPa South 8 km/h 12.9 km/h 45% 0 mm
17:52 30.8 °C 17.2 °C 1015.5 hPa SSE 8 km/h 9.7 km/h 44% 0 mm
17:57 30.8 °C 17.2 °C 1015.5 hPa SW 11.3 km/h 14.5 km/h 44% 0 mm
18:02 30.8 °C 17.5 °C 1015.5 hPa SW 11.3 km/h 11.3 km/h 45% 0 mm
18:07 30.7 °C 16.3 °C 1015.5 hPa SSW 11.3 km/h 11.3 km/h 42% 0 mm
18:12 30.7 °C 16.7 °C 1015.5 hPa SW 8 km/h 14.5 km/h 43% 0 mm
18:17 30.8 °C 16.4 °C 1015.5 hPa WSW 3.2 km/h 9.7 km/h 42% 0 mm
18:22 30.7 °C 16 °C 1015.5 hPa SSW 3.2 km/h 14.5 km/h 41% 0 mm
18:28 30.8 °C 17.1 °C 1015.5 hPa South 3.2 km/h 9.7 km/h 44% 0 mm
18:33 30.7 °C 17.4 °C 1015.5 hPa SW 4.8 km/h 11.3 km/h 45% 0 mm
18:38 30.6 °C 16.9 °C 1015.5 hPa SW 8 km/h 9.7 km/h 44% 0 mm
18:43 30.4 °C 17.9 °C 1015.5 hPa SW 9.7 km/h 9.7 km/h 47% 0 mm
18:48 30.4 °C 17.5 °C 1015.5 hPa SW 3.2 km/h 9.7 km/h 46% 0 mm
18:53 30.4 °C 17.5 °C 1015.5 hPa WSW 4.8 km/h 8 km/h 46% 0 mm
18:58 30.4 °C 17.5 °C 1015.5 hPa WSW 6.4 km/h 8 km/h 46% 0 mm
19:03 30.3 °C 17.1 °C 1015.5 hPa SSW 4.8 km/h 9.7 km/h 45% 0 mm
19:08 30.2 °C 17.7 °C 1015.5 hPa SW 4.8 km/h 6.4 km/h 47% 0 mm
19:13 30.2 °C 17.3 °C 1015.5 hPa SW 4.8 km/h 6.4 km/h 46% 0 mm
19:18 30.1 °C 16.9 °C 1015.5 hPa SSW 3.2 km/h 8 km/h 45% 0 mm
19:23 30 °C 17.4 °C 1015.5 hPa SW 4.8 km/h 6.4 km/h 47% 0 mm
19:28 29.9 °C 17.4 °C 1015.5 hPa SW 3.2 km/h 6.4 km/h 47% 0 mm
19:33 29.9 °C 17.8 °C 1015.5 hPa SSW 1.6 km/h 4.8 km/h 48% 0 mm
19:38 29.9 °C 18 °C 1015.5 hPa SW 3.2 km/h 6.4 km/h 49% 0 mm
19:43 29.8 °C 18.2 °C 1015.5 hPa SSW 3.2 km/h 4.8 km/h 50% 0 mm
19:48 29.8 °C 17.9 °C 1015.5 hPa SSE 1.6 km/h 3.2 km/h 49% 0 mm
19:53 29.8 °C 18.6 °C 1015.5 hPa Calm   3.2 km/h 51% 0 mm
19:58 29.9 °C 18.7 °C 1015.5 hPa SW 1.6 km/h 1.6 km/h 51% 0 mm
20:03 29.8 °C 18.6 °C 1015.5 hPa SSW 1.6 km/h 3.2 km/h 51% 0 mm
20:08 29.7 °C 18.4 °C 1015.5 hPa Calm   1.6 km/h 51% 0 mm
20:13 29.6 °C 18.4 °C 1015.8 hPa SSE 1.6 km/h 3.2 km/h 51% 0 mm
20:18 29.3 °C 18.2 °C 1015.8 hPa SE 3.2 km/h 3.2 km/h 51% 0 mm
20:23 28.9 °C 18.4 °C 1015.8 hPa SE 1.6 km/h 1.6 km/h 53% 0 mm
20:28 28.4 °C 18.2 °C 1015.8 hPa SE 1.6 km/h 1.6 km/h 54% 0 mm
20:33 28.1 °C 18.2 °C 1015.8 hPa Calm   1.6 km/h 55% 0 mm
20:38 27.8 °C 18.3 °C 1015.8 hPa SE 1.6 km/h 1.6 km/h 56% 0 mm
20:43 27.6 °C 18.1 °C 1015.8 hPa SE 1.6 km/h 1.6 km/h 56% 0 mm
20:48 27.3 °C 18.3 °C 1015.8 hPa SE 1.6 km/h 1.6 km/h 58% 0 mm
20:53 26.8 °C 18.1 °C 1015.8 hPa SE 1.6 km/h 1.6 km/h 59% 0 mm
20:58 26.3 °C 18.5 °C 1015.8 hPa SSE 1.6 km/h 1.6 km/h 62% 0 mm
21:03 26.1 °C 18.3 °C 1015.8 hPa SSE 1.6 km/h 1.6 km/h 62% 0 mm
21:08 26.1 °C 18.4 °C 1015.8 hPa SSE 1.6 km/h 1.6 km/h 63% 0 mm
21:13 25.9 °C 18.3 °C 1015.8 hPa SE 1.6 km/h 3.2 km/h 63% 0 mm
21:18 25.7 °C 18.4 °C 1015.8 hPa SE 1.6 km/h 1.6 km/h 64% 0 mm
21:24 25.5 °C 18.2 °C 1015.8 hPa SE 1.6 km/h 1.6 km/h 64% 0 mm
21:29 25.4 °C 18.6 °C 1015.8 hPa SE 3.2 km/h 3.2 km/h 66% 0 mm
21:34 25.2 °C 18.4 °C 1015.8 hPa SE 1.6 km/h 3.2 km/h 66% 0 mm
21:39 24.9 °C 18.4 °C 1015.8 hPa SSE 1.6 km/h 3.2 km/h 67% 0 mm
21:44 24.8 °C 18.5 °C 1015.8 hPa SSE 1.6 km/h 1.6 km/h 68% 0 mm
21:49 24.6 °C 18.3 °C 1015.8 hPa SSE 1.6 km/h 1.6 km/h 68% 0 mm
21:54 24.4 °C 18.3 °C 1015.8 hPa SSE 1.6 km/h 3.2 km/h 69% 0 mm
21:59 24.3 °C 18.3 °C 1016.1 hPa SSE 1.6 km/h 3.2 km/h 69% 0 mm
22:04 24.3 °C 18.3 °C 1016.1 hPa SSE 1.6 km/h 3.2 km/h 69% 0 mm
22:09 24.4 °C 18.3 °C 1016.1 hPa SSE 3.2 km/h 3.2 km/h 69% 0 mm
22:14 24.4 °C 18.3 °C 1016.1 hPa SE 3.2 km/h 4.8 km/h 69% 0 mm
22:19 24.4 °C 18.6 °C 1016.1 hPa SSE 1.6 km/h 4.8 km/h 70% 0 mm
22:24 24.3 °C 18.3 °C 1016.1 hPa SSE 1.6 km/h 4.8 km/h 69% 0 mm
22:30 24.4 °C 18.3 °C 1016.5 hPa SSE 3.2 km/h 3.2 km/h 69% 0 mm
22:35 24.4 °C 18.3 °C 1016.5 hPa SSE 1.6 km/h 3.2 km/h 69% 0 mm
22:40 24.3 °C 18.4 °C 1016.5 hPa SSE 1.6 km/h 1.6 km/h 70% 0 mm
22:45 24.2 °C 18.4 °C 1016.5 hPa SSE 3.2 km/h 3.2 km/h 70% 0 mm
22:50 24.2 °C 18.3 °C 1016.5 hPa SSE 1.6 km/h 3.2 km/h 70% 0 mm
22:55 24.1 °C 18.5 °C 1016.5 hPa SSE 1.6 km/h 1.6 km/h 71% 0 mm
23:00 24.1 °C 18.5 °C 1016.5 hPa SSE 1.6 km/h 3.2 km/h 71% 0 mm
23:05 24 °C 18.4 °C 1016.8 hPa SE 1.6 km/h 1.6 km/h 71% 0 mm
23:10 23.9 °C 18.3 °C 1016.8 hPa Calm   1.6 km/h 71% 0 mm
23:15 23.8 °C 18.4 °C 1016.8 hPa Calm   1.6 km/h 72% 0 mm
23:20 23.6 °C 18.3 °C 1016.8 hPa Calm   1.6 km/h 72% 0 mm
23:25 23.4 °C 18.3 °C 1016.8 hPa Calm     73% 0 mm
23:30 23.2 °C 18.3 °C 1016.8 hPa SE 1.6 km/h 1.6 km/h 74% 0 mm
23:35 23.2 °C 18.5 °C 1016.5 hPa SE 1.6 km/h 1.6 km/h 75% 0 mm
23:40 23.2 °C 18.5 °C 1016.5 hPa SE 3.2 km/h 3.2 km/h 75% 0 mm
23:45 23.2 °C 18.6 °C 1016.8 hPa SE 1.6 km/h 1.6 km/h 75% 0 mm
23:50 23.2 °C 18.6 °C 1016.8 hPa SE 1.6 km/h 1.6 km/h 75% 0 mm
23:55 23.2 °C 18.5 °C 1016.5 hPa Calm   1.6 km/h 75% 0 mm
Compliments of Weather Underground